This demonstration page uses our WeatherBlox Daily Observations layout. Learn more.

Left ArrowRight Arrow

44.8408, -93.29828

Hourly Observations for February 3, 2022

Temp ( °F °C ) Dew Point ( °F °C ) Humidity (%) Winds ( mph kmh ) Pressure ( in mb ) Visibility ( mi km ) Precip ( " mm )
12:53 am 00:53 Partly Cloudy -5 -20.6 -15 -26.1 62 62 NNW 8 13 30.73 1041 10 16 0.00 0.00
1:53 am 01:53 Partly Cloudy -4 -20 -15 -26.1 58 58 NNW 6 9 30.74 1041 10 16 0.00 0.00
2:53 am 02:53 Partly Cloudy -6 -21.1 -16 -26.7 61 61 N 8 13 30.75 1041 10 16 0.00 0.00
3:53 am 03:53 Mostly Clear -7 -21.7 -17 -27.2 61 61 N 9 15 30.76 1042 10 16 0.00 0.00
4:53 am 04:53 Mostly Clear -7 -21.7 -17 -27.2 61 61 N 10 17 30.76 1042 10 16 0.00 0.00
5:53 am 05:53 Clear -8 -22.2 -17 -27.2 64 64 NNE 6 9 30.76 1042 10 16 0.00 0.00
6:53 am 06:53 Clear -9 -22.8 -18 -27.8 64 64 N 5 7 30.77 1042 10 16 0.00 0.00
7:53 am 07:53 Sunny -9 -22.8 -17 -27.2 67 67 NNE 6 9 30.78 1042 10 16 0.00 0.00
8:53 am 08:53 Sunny -7 -21.7 -16 -26.7 64 64 NE 6 9 30.78 1042 10 16 0.00 0.00
9:53 am 09:53 Sunny -5 -20.6 -15 -26.1 62 62 N 3 6 30.77 1042 10 16 0.00 0.00
10:53 am 10:53 Sunny -2 -18.9 -14 -25.6 56 56 Calm 30.76 1042 10 16 0.00 0.00
11:53 am 11:53 Sunny 0 -17.8 -14 -25.6 51 51 Calm 30.73 1041 10 16 0.00 0.00
12:53 pm 12:53 Sunny 2 -16.7 -13 -25 49 49 Calm 30.72 1040 10 16 0.00 0.00
1:53 pm 13:53 Sunny 3 -16.1 -14 -25.6 44 44 Calm 30.68 1039 10 16 0.00 0.00
2:53 pm 14:53 Sunny 4 -15.6 -14 -25.6 42 42 Calm 30.66 1038 10 16 0.00 0.00
3:53 pm 15:53 Sunny 6 -14.4 -15 -26.1 37 37 Calm 30.65 1038 10 16 0.00 0.00
4:53 pm 16:53 Sunny 4 -15.6 -16 -26.7 38 38 Calm 30.63 1037 10 16 0.00 0.00
5:53 pm 17:53 Clear 4 -15.6 -16 -26.7 38 38 Calm 30.61 1037 10 16 0.00 0.00
6:53 pm 18:53 Clear 3 -16.1 -14 -25.6 44 44 VRB 5 7 30.60 1036 10 16 0.00 0.00
7:53 pm 19:53 Clear 2 -16.7 -13 -25 49 49 SSW 5 7 30.60 1036 10 16 0.00 0.00
8:53 pm 20:53 Partly Cloudy 2 -16.7 -12 -24.4 52 52 SW 5 7 30.59 1036 10 16 0.00 0.00
9:53 pm 21:53 Partly Cloudy 1 -17.2 -13 -25 51 51 VRB 3 6 30.58 1036 10 16 0.00 0.00
10:53 pm 22:53 Mostly Cloudy 0 -17.8 -12 -24.4 57 57 SW 3 6 30.57 1035 10 16 0.00 0.00
11:53 pm 23:53 Mostly Cloudy 0 -17.8 -13 -25 54 54 SSW 6 9 30.53 1034 10 16 0.00 0.00

Powered by AerisWeather